Time,TemperatureF,DewpointF,PressureIn,WindDirection,WindDirectionDegrees,WindSpeedMPH,WindSpeedGustMPH,Humidity,HourlyPrecipIn,Conditions,Clouds,dailyrainin,SoftwareType,DateUTC
2013-05-06 00:10:00,58.0,50.5,29.87,WSW,247,0.0,0.0,76,0.00,,,0.00,Wunderground v.1.15,2013-05-06 07:10:00,
2013-05-06 00:20:00,57.6,50.1,29.87,WSW,247,0.0,0.0,76,0.00,,,0.00,Wunderground v.1.15,2013-05-06 07:20:00,
2013-05-06 00:26:00,57.6,50.1,29.87,WSW,247,0.0,0.0,76,0.00,,,0.00,Wunderground v.1.15,2013-05-06 07:26:00,
2013-05-06 00:35:00,57.3,49.1,29.87,WSW,247,0.0,0.0,74,0.00,,,0.00,Wunderground v.1.15,2013-05-06 07:35:00,
2013-05-06 00:45:00,57.0,49.5,29.87,WSW,247,0.0,0.0,76,0.00,,,0.00,Wunderground v.1.15,2013-05-06 07:45:00,
2013-05-06 00:51:00,56.9,49.4,29.87,WSW,247,0.0,0.0,76,0.00,,,0.00,Wunderground v.1.15,2013-05-06 07:51:00,
2013-05-06 01:00:00,56.6,48.8,29.87,WSW,247,0.0,0.0,75,0.00,,,0.00,Wunderground v.1.15,2013-05-06 08:00:00,
2013-05-06 01:10:00,56.3,49.2,29.88,WSW,247,0.0,0.0,77,0.00,,,0.00,Wunderground v.1.15,2013-05-06 08:10:00,
2013-05-06 01:21:00,56.0,48.9,29.88,WSW,247,0.0,0.0,77,0.00,,,0.00,Wunderground v.1.15,2013-05-06 08:21:00,
2013-05-06 01:30:00,55.7,49.3,29.88,WSW,247,0.0,0.0,79,0.00,,,0.00,Wunderground v.1.15,2013-05-06 08:30:00,
2013-05-06 01:40:00,55.3,48.6,29.88,WSW,247,0.0,0.0,78,0.00,,,0.00,Wunderground v.1.15,2013-05-06 08:40:00,
2013-05-06 01:50:00,55.0,48.6,29.88,WSW,247,0.0,0.0,79,0.00,,,0.00,Wunderground v.1.15,2013-05-06 08:50:00,
2013-05-06 02:00:00,54.7,48.0,29.88,WSW,247,0.0,0.0,78,0.00,,,0.00,Wunderground v.1.15,2013-05-06 09:00:00,
2013-05-06 02:06:00,54.5,47.8,29.88,WSW,247,0.0,0.0,78,0.00,,,0.00,Wunderground v.1.15,2013-05-06 09:06:00,
2013-05-06 02:15:00,54.2,47.5,29.88,WSW,247,0.0,0.0,78,0.00,,,0.00,Wunderground v.1.15,2013-05-06 09:15:00,
2013-05-06 02:26:00,53.9,47.2,29.88,WSW,247,0.0,0.0,78,0.00,,,0.00,Wunderground v.1.15,2013-05-06 09:26:00,
2013-05-06 02:35:00,53.5,46.5,29.87,WSW,247,0.0,0.0,77,0.00,,,0.00,Wunderground v.1.15,2013-05-06 09:35:00,
2013-05-06 02:46:00,53.2,46.5,29.87,WSW,247,0.0,0.0,78,0.00,,,0.00,Wunderground v.1.15,2013-05-06 09:46:00,
2013-05-06 02:55:00,52.9,45.9,29.88,WSW,247,0.0,0.0,77,0.00,,,0.00,Wunderground v.1.15,2013-05-06 09:55:00,
2013-05-06 03:00:00,52.8,45.8,29.88,WSW,247,0.0,0.0,77,0.00,,,0.00,Wunderground v.1.15,2013-05-06 10:00:00,
2013-05-06 03:06:00,52.8,46.5,29.88,WSW,247,0.0,0.0,79,0.00,,,0.00,Wunderground v.1.15,2013-05-06 10:06:00,
2013-05-06 03:15:00,52.5,46.2,29.88,WSW,247,0.0,0.0,79,0.00,,,0.00,Wunderground v.1.15,2013-05-06 10:15:00,
2013-05-06 03:21:00,52.3,46.3,29.88,WSW,247,0.0,0.0,80,0.00,,,0.00,Wunderground v.1.15,2013-05-06 10:21:00,
2013-05-06 03:30:00,52.0,46.3,29.88,WSW,247,0.0,0.0,81,0.00,,,0.00,Wunderground v.1.15,2013-05-06 10:30:00,
2013-05-06 03:40:00,51.7,46.1,29.88,WSW,247,0.0,0.0,81,0.00,,,0.00,Wunderground v.1.15,2013-05-06 10:40:00,
2013-05-06 03:51:00,51.6,46.0,29.87,WSW,247,0.0,0.0,81,0.00,,,0.00,Wunderground v.1.15,2013-05-06 10:51:00,
2013-05-06 04:00:00,51.3,46.0,29.87,WSW,247,0.0,0.0,82,0.00,,,0.00,Wunderground v.1.15,2013-05-06 11:00:00,
2013-05-06 04:10:00,51.0,45.7,29.87,WSW,247,0.0,0.0,82,0.00,,,0.00,Wunderground v.1.15,2013-05-06 11:10:00,
2013-05-06 04:15:00,50.8,44.9,29.87,WSW,247,0.0,0.0,80,0.00,,,0.00,Wunderground v.1.15,2013-05-06 11:15:00,
2013-05-06 04:25:00,50.7,45.1,29.88,WSW,247,0.0,0.0,81,0.00,,,0.00,Wunderground v.1.15,2013-05-06 11:25:00,
2013-05-06 04:36:00,50.4,44.8,29.88,WSW,247,0.0,0.0,81,0.00,,,0.00,Wunderground v.1.15,2013-05-06 11:36:00,
2013-05-06 04:45:00,50.2,45.2,29.88,WSW,247,0.0,0.0,83,0.00,,,0.00,Wunderground v.1.15,2013-05-06 11:45:00,
2013-05-06 04:55:00,50.1,45.1,29.88,WSW,247,0.0,0.0,83,0.00,,,0.00,Wunderground v.1.15,2013-05-06 11:55:00,
2013-05-06 05:06:00,49.8,44.8,29.89,WSW,247,0.0,0.0,83,0.00,,,0.00,Wunderground v.1.15,2013-05-06 12:06:00,
2013-05-06 05:15:00,49.6,44.6,29.89,WSW,247,0.0,0.0,83,0.00,,,0.00,Wunderground v.1.15,2013-05-06 12:15:00,
2013-05-06 05:25:00,49.4,44.8,29.89,WSW,247,0.0,0.0,84,0.00,,,0.00,Wunderground v.1.15,2013-05-06 12:25:00,
2013-05-06 05:31:00,49.2,44.9,29.89,WSW,247,0.0,0.0,85,0.00,,,0.00,Wunderground v.1.15,2013-05-06 12:31:00,
2013-05-06 05:36:00,49.2,44.9,29.89,WSW,247,0.0,0.0,85,0.00,,,0.00,Wunderground v.1.15,2013-05-06 12:36:00,
2013-05-06 05:45:00,48.9,44.6,29.89,WSW,247,0.0,0.0,85,0.00,,,0.00,Wunderground v.1.15,2013-05-06 12:45:00,
2013-05-06 05:50:00,48.9,44.9,29.89,WSW,247,0.0,0.0,86,0.00,,,0.00,Wunderground v.1.15,2013-05-06 12:50:00,
2013-05-06 06:00:00,48.8,44.8,29.89,WSW,247,0.0,0.0,86,0.00,,,0.00,Wunderground v.1.15,2013-05-06 13:00:00,
2013-05-06 06:10:00,48.8,44.8,29.90,WSW,247,0.0,0.0,86,0.00,,,0.00,Wunderground v.1.15,2013-05-06 13:10:00,
2013-05-06 06:20:00,48.6,44.9,29.90,WSW,247,0.0,0.0,87,0.00,,,0.00,Wunderground v.1.15,2013-05-06 13:20:00,
2013-05-06 06:26:00,48.6,44.9,29.90,WSW,247,0.0,0.0,87,0.00,,,0.00,Wunderground v.1.15,2013-05-06 13:26:00,
2013-05-06 06:35:00,48.6,45.2,29.90,WSW,247,0.0,0.0,88,0.00,,,0.00,Wunderground v.1.15,2013-05-06 13:35:00,
2013-05-06 06:40:00,48.5,45.1,29.90,WSW,247,0.0,0.0,88,0.00,,,0.00,Wunderground v.1.15,2013-05-06 13:40:00,
2013-05-06 06:50:00,48.5,45.4,29.90,WSW,247,0.0,0.0,89,0.00,,,0.00,Wunderground v.1.15,2013-05-06 13:50:00,
2013-05-06 07:01:00,48.6,46.1,29.90,WSW,247,0.0,0.0,91,0.00,,,0.00,Wunderground v.1.15,2013-05-06 14:01:00,
2013-05-06 07:10:00,48.8,45.7,29.91,WSW,247,0.0,0.0,89,0.00,,,0.00,Wunderground v.1.15,2013-05-06 14:10:00,
2013-05-06 07:16:00,48.9,45.8,29.91,WSW,247,0.0,0.0,89,0.00,,,0.00,Wunderground v.1.15,2013-05-06 14:16:00,
2013-05-06 07:21:00,48.9,45.8,29.91,WSW,247,0.0,0.0,89,0.00,,,0.00,Wunderground v.1.15,2013-05-06 14:21:00,
2013-05-06 07:30:00,49.5,46.7,29.91,WSW,247,0.0,0.0,90,0.00,,,0.00,Wunderground v.1.15,2013-05-06 14:30:00,
2013-05-06 07:35:00,49.8,47.0,29.91,WSW,247,0.0,0.0,90,0.00,,,0.00,Wunderground v.1.15,2013-05-06 14:35:00,
2013-05-06 07:45:00,50.7,47.6,29.91,WSW,247,0.0,0.0,89,0.00,,,0.00,Wunderground v.1.15,2013-05-06 14:45:00,
2013-05-06 07:50:00,51.3,47.9,29.91,WSW,247,0.0,0.0,88,0.00,,,0.00,Wunderground v.1.15,2013-05-06 14:50:00,
2013-05-06 08:01:00,52.5,48.1,29.91,WSW,247,0.0,0.0,85,0.00,,,0.00,Wunderground v.1.15,2013-05-06 15:01:00,
2013-05-06 08:11:00,53.9,48.5,29.91,WSW,247,0.0,0.0,82,0.00,,,0.00,Wunderground v.1.15,2013-05-06 15:11:00,
2013-05-06 08:20:00,55.3,50.2,29.91,WSW,246,0.0,0.0,83,0.00,,,0.00,Wunderground v.1.15,2013-05-06 15:20:00,
2013-05-06 08:30:00,56.5,50.4,29.91,WSW,246,0.0,0.0,80,0.00,,,0.00,Wunderground v.1.15,2013-05-06 15:30:00,
2013-05-06 08:35:00,57.2,50.7,29.91,WSW,246,0.0,0.0,79,0.00,,,0.00,Wunderground v.1.15,2013-05-06 15:35:00,
2013-05-06 08:45:00,58.7,50.8,29.91,WSW,246,0.0,0.0,75,0.00,,,0.00,Wunderground v.1.15,2013-05-06 15:45:00,
2013-05-06 08:51:00,59.6,50.6,29.91,WSW,246,0.0,0.0,72,0.00,,,0.00,Wunderground v.1.15,2013-05-06 15:51:00,
2013-05-06 09:00:00,61.2,50.2,29.91,WSW,246,0.0,0.0,67,0.00,,,0.00,Wunderground v.1.15,2013-05-06 16:00:00,
2013-05-06 09:10:00,62.7,51.2,29.91,ESE,106,0.0,0.0,66,0.00,,,0.00,Wunderground v.1.15,2013-05-06 16:10:00,
2013-05-06 09:21:00,64.3,50.6,29.90,ESE,106,0.0,0.0,61,0.00,,,0.00,Wunderground v.1.15,2013-05-06 16:21:00,
2013-05-06 09:30:00,65.8,51.1,29.90,ESE,106,0.0,0.0,59,0.00,,,0.00,Wunderground v.1.15,2013-05-06 16:30:00,
2013-05-06 09:41:00,66.9,52.1,29.90,ESE,106,0.0,0.0,59,0.00,,,0.00,Wunderground v.1.15,2013-05-06 16:41:00,
2013-05-06 09:50:00,68.1,50.8,29.90,ESE,106,0.0,0.0,54,0.00,,,0.00,Wunderground v.1.15,2013-05-06 16:50:00,
2013-05-06 10:01:00,68.8,51.5,29.90,ESE,103,0.0,0.0,54,0.00,,,0.00,Wunderground v.1.15,2013-05-06 17:01:00,
2013-05-06 10:10:00,69.4,48.9,29.89,ESE,104,0.0,0.0,48,0.00,,,0.00,Wunderground v.1.15,2013-05-06 17:10:00,
2013-05-06 10:20:00,70.3,48.5,29.90,ESE,110,0.0,0.0,46,0.00,,,0.00,Wunderground v.1.15,2013-05-06 17:20:00,
2013-05-06 10:26:00,70.9,51.3,29.90,ESE,110,0.0,0.0,50,0.00,,,0.00,Wunderground v.1.15,2013-05-06 17:26:00,
2013-05-06 10:35:00,71.8,49.9,29.89,WSW,253,0.0,0.0,46,0.00,,,0.00,Wunderground v.1.15,2013-05-06 17:35:00,
2013-05-06 10:46:00,72.3,50.9,29.89,South,179,0.0,0.0,47,0.00,,,0.00,Wunderground v.1.15,2013-05-06 17:46:00,
2013-05-06 10:55:00,73.0,50.4,29.89,WSW,256,0.0,0.0,45,0.00,,,0.00,Wunderground v.1.15,2013-05-06 17:55:00,
2013-05-06 11:06:00,73.9,50.6,29.88,South,178,0.0,0.0,44,0.00,,,0.00,Wunderground v.1.15,2013-05-06 18:06:00,
2013-05-06 11:15:00,75.1,48.4,29.88,South,178,0.0,0.0,39,0.00,,,0.00,Wunderground v.1.15,2013-05-06 18:15:00,
2013-05-06 11:26:00,76.1,51.3,29.88,NW,318,0.0,0.0,42,0.00,,,0.00,Wunderground v.1.15,2013-05-06 18:26:00,
2013-05-06 11:35:00,77.0,46.5,29.88,SSW,195,0.0,0.0,34,0.00,,,0.00,Wunderground v.1.15,2013-05-06 18:35:00,
2013-05-06 11:46:00,78.1,47.4,29.88,SE,141,0.0,0.0,34,0.00,,,0.00,Wunderground v.1.15,2013-05-06 18:46:00,
2013-05-06 11:55:00,78.6,45.4,29.87,South,191,0.0,0.0,31,0.00,,,0.00,Wunderground v.1.15,2013-05-06 18:55:00,
2013-05-06 12:10:00,79.8,48.9,29.86,South,169,0.0,0.0,34,0.00,,,0.00,Wunderground v.1.15,2013-05-06 19:10:00,
2013-05-06 12:15:00,80.1,48.4,29.86,SW,224,0.0,0.0,33,0.00,,,0.00,Wunderground v.1.15,2013-05-06 19:15:00,
2013-05-06 12:25:00,80.7,47.2,29.86,West,261,0.0,0.0,31,0.00,,,0.00,Wunderground v.1.15,2013-05-06 19:25:00,
2013-05-06 12:31:00,80.5,47.9,29.86,SE,144,0.0,0.0,32,0.00,,,0.00,Wunderground v.1.15,2013-05-06 19:31:00,
2013-05-06 12:40:00,81.2,49.4,29.85,ESE,113,0.0,0.0,33,0.00,,,0.00,Wunderground v.1.15,2013-05-06 19:40:00,
2013-05-06 12:50:00,81.8,49.1,29.85,ESE,116,0.0,0.0,32,0.00,,,0.00,Wunderground v.1.15,2013-05-06 19:50:00,
2013-05-06 13:00:00,82.8,53.9,29.85,SE,138,0.0,0.0,37,0.00,,,0.00,Wunderground v.1.15,2013-05-06 20:00:00,
2013-05-06 13:10:00,82.8,51.6,29.84,SE,130,0.0,0.0,34,0.00,,,0.00,Wunderground v.1.15,2013-05-06 20:10:00,
2013-05-06 13:16:00,83.0,45.6,29.84,WNW,282,0.0,0.0,27,0.00,,,0.00,Wunderground v.1.15,2013-05-06 20:16:00,
2013-05-06 13:20:00,83.2,50.3,29.84,SSE,155,0.0,0.0,32,0.00,,,0.00,Wunderground v.1.15,2013-05-06 20:20:00,
2013-05-06 13:30:00,83.8,46.2,29.84,SSW,206,0.0,0.0,27,0.00,,,0.00,Wunderground v.1.15,2013-05-06 20:30:00,
2013-05-06 13:41:00,84.3,52.1,29.84,SSE,165,0.0,0.0,33,0.00,,,0.00,Wunderground v.1.15,2013-05-06 20:41:00,
2013-05-06 13:50:00,84.9,49.1,29.83,SE,127,0.0,0.0,29,0.00,,,0.00,Wunderground v.1.15,2013-05-06 20:50:00,
2013-05-06 13:56:00,85.3,48.5,29.83,SSW,205,0.0,0.0,28,0.00,,,0.00,Wunderground v.1.15,2013-05-06 20:56:00,
2013-05-06 14:10:00,86.3,51.2,29.83,SW,216,0.0,0.0,30,0.00,,,0.00,Wunderground v.1.15,2013-05-06 21:10:00,
2013-05-06 14:20:00,86.3,49.4,29.83,SSW,202,0.0,0.0,28,0.00,,,0.00,Wunderground v.1.15,2013-05-06 21:20:00,
2013-05-06 14:26:00,86.7,50.6,29.83,South,181,0.0,0.0,29,0.00,,,0.00,Wunderground v.1.15,2013-05-06 21:26:00,
2013-05-06 14:35:00,86.5,53.1,29.82,SE,137,0.0,0.0,32,0.00,,,0.00,Wunderground v.1.15,2013-05-06 21:35:00,
2013-05-06 14:46:00,86.7,49.7,29.82,ESE,123,0.0,0.0,28,0.00,,,0.00,Wunderground v.1.15,2013-05-06 21:46:00,
2013-05-06 14:55:00,87.0,49.0,29.82,SE,124,0.0,0.0,27,0.00,,,0.00,Wunderground v.1.15,2013-05-06 21:55:00,
2013-05-06 15:11:00,87.8,47.6,29.82,SSW,205,0.0,0.0,25,0.00,,,0.00,Wunderground v.1.15,2013-05-06 22:11:00,
2013-05-06 15:20:00,88.0,47.8,29.81,SSW,203,0.0,0.0,25,0.00,,,0.00,Wunderground v.1.15,2013-05-06 22:20:00,
2013-05-06 15:31:00,88.0,49.8,29.81,West,260,0.0,0.0,27,0.00,,,0.00,Wunderground v.1.15,2013-05-06 22:31:00,
2013-05-06 15:40:00,88.4,48.1,29.81,SSE,147,0.0,0.0,25,0.00,,,0.00,Wunderground v.1.15,2013-05-06 22:40:00,
2013-05-06 15:46:00,88.6,46.1,29.81,WSW,241,0.0,0.0,23,0.00,,,0.00,Wunderground v.1.15,2013-05-06 22:46:00,
2013-05-06 15:55:00,88.6,47.2,29.80,WSW,257,0.0,0.0,24,0.00,,,0.00,Wunderground v.1.15,2013-05-06 22:55:00,
2013-05-06 16:10:00,87.4,45.1,29.80,SSW,205,0.0,0.0,23,0.00,,,0.00,Wunderground v.1.15,2013-05-06 23:10:00,
2013-05-06 16:21:00,86.7,47.7,29.79,WSW,237,0.0,0.0,26,0.00,,,0.00,Wunderground v.1.15,2013-05-06 23:21:00,
2013-05-06 16:30:00,86.3,46.3,29.79,WSW,247,0.0,0.0,25,0.00,,,0.00,Wunderground v.1.15,2013-05-06 23:30:00,
2013-05-06 16:41:00,87.2,47.1,29.79,WSW,258,0.0,0.0,25,0.00,,,0.00,Wunderground v.1.15,2013-05-06 23:41:00,
2013-05-06 16:50:00,87.8,46.5,29.79,SSE,150,0.0,0.0,24,0.00,,,0.00,Wunderground v.1.15,2013-05-06 23:50:00,
2013-05-06 16:56:00,87.8,47.6,29.79,ESE,117,0.0,0.0,25,0.00,,,0.00,Wunderground v.1.15,2013-05-06 23:56:00,
2013-05-06 17:10:00,87.4,48.3,29.79,West,261,0.0,0.0,26,0.00,,,0.00,Wunderground v.1.15,2013-05-07 00:10:00,
2013-05-06 17:16:00,87.2,47.1,29.79,West,260,0.0,0.0,25,0.00,,,0.00,Wunderground v.1.15,2013-05-07 00:16:00,
2013-05-06 17:25:00,87.4,48.3,29.79,WSW,253,0.0,0.0,26,0.00,,,0.00,Wunderground v.1.15,2013-05-07 00:25:00,
2013-05-06 17:30:00,87.8,48.6,29.79,ESE,109,0.0,0.0,26,0.00,,,0.00,Wunderground v.1.15,2013-05-07 00:30:00,
2013-05-06 17:40:00,87.0,45.8,29.79,SW,217,0.0,0.0,24,0.00,,,0.00,Wunderground v.1.15,2013-05-07 00:40:00,
2013-05-06 17:46:00,85.9,48.0,29.79,WSW,250,0.0,0.0,27,0.00,,,0.00,Wunderground v.1.15,2013-05-07 00:46:00,
2013-05-06 17:55:00,84.3,46.7,29.78,West,264,0.0,0.0,27,0.00,,,0.00,Wunderground v.1.15,2013-05-07 00:55:00,
2013-05-06 18:11:00,85.7,51.6,29.78,SW,217,0.0,0.0,31,0.00,,,0.00,Wunderground v.1.15,2013-05-07 01:11:00,
2013-05-06 18:20:00,87.0,50.0,29.78,South,191,0.0,0.0,28,0.00,,,0.00,Wunderground v.1.15,2013-05-07 01:20:00,
2013-05-06 18:31:00,86.1,48.2,29.78,ESE,114,0.0,0.0,27,0.00,,,0.00,Wunderground v.1.15,2013-05-07 01:31:00,
2013-05-06 18:36:00,85.5,51.4,29.77,WSW,251,0.0,0.0,31,0.00,,,0.00,Wunderground v.1.15,2013-05-07 01:36:00,
2013-05-06 18:45:00,83.6,48.9,29.77,SE,130,0.0,0.0,30,0.00,,,0.00,Wunderground v.1.15,2013-05-07 01:45:00,
2013-05-06 18:50:00,83.0,49.2,29.77,WSW,237,0.0,0.0,31,0.00,,,0.00,Wunderground v.1.15,2013-05-07 01:50:00,
2013-05-06 19:00:00,81.2,45.9,29.77,WSW,248,0.0,0.0,29,0.00,,,0.00,Wunderground v.1.15,2013-05-07 02:00:00,
2013-05-06 19:11:00,80.1,46.7,29.78,WNW,292,0.0,0.0,31,0.00,,,0.00,Wunderground v.1.15,2013-05-07 02:11:00,
2013-05-06 19:20:00,79.0,44.9,29.78,WSW,250,0.0,0.0,30,0.00,,,0.00,Wunderground v.1.15,2013-05-07 02:20:00,
2013-05-06 19:30:00,78.1,45.0,29.78,WSW,244,0.0,0.0,31,0.00,,,0.00,Wunderground v.1.15,2013-05-07 02:30:00,
2013-05-06 19:36:00,77.7,44.6,29.79,WSW,248,0.0,0.0,31,0.00,,,0.00,Wunderground v.1.15,2013-05-07 02:36:00,
2013-05-06 19:46:00,77.2,45.0,29.79,WSW,256,0.0,0.0,32,0.00,,,0.00,Wunderground v.1.15,2013-05-07 02:46:00,
2013-05-06 19:55:00,76.1,45.7,29.79,West,260,0.0,0.0,34,0.00,,,0.00,Wunderground v.1.15,2013-05-07 02:55:00,
2013-05-06 20:11:00,74.7,46.7,29.80,West,265,0.0,0.0,37,0.00,,,0.00,Wunderground v.1.15,2013-05-07 03:11:00,
2013-05-06 20:20:00,73.9,47.4,29.80,SW,233,0.0,0.0,39,0.00,,,0.00,Wunderground v.1.15,2013-05-07 03:20:00,
2013-05-06 20:30:00,72.8,47.1,29.80,SW,222,0.0,0.0,40,0.00,,,0.00,Wunderground v.1.15,2013-05-07 03:30:00,
2013-05-06 20:36:00,72.3,47.3,29.81,SW,230,0.0,0.0,41,0.00,,,0.00,Wunderground v.1.15,2013-05-07 03:36:00,
2013-05-06 20:45:00,71.5,47.2,29.81,SW,232,0.0,0.0,42,0.00,,,0.00,Wunderground v.1.15,2013-05-07 03:45:00,
2013-05-06 20:55:00,70.9,50.8,29.81,SW,232,0.0,0.0,49,0.00,,,0.00,Wunderground v.1.15,2013-05-07 03:55:00,
2013-05-06 21:10:00,69.6,49.6,29.82,SW,232,0.0,0.0,49,0.00,,,0.00,Wunderground v.1.15,2013-05-07 04:10:00,
2013-05-06 21:15:00,68.9,49.5,29.82,SW,232,0.0,0.0,50,0.00,,,0.00,Wunderground v.1.15,2013-05-07 04:15:00,
2013-05-06 21:20:00,68.4,49.6,29.82,SW,232,0.0,0.0,51,0.00,,,0.00,Wunderground v.1.15,2013-05-07 04:20:00,
2013-05-06 21:25:00,67.9,50.1,29.82,SW,232,0.0,0.0,53,0.00,,,0.00,Wunderground v.1.15,2013-05-07 04:25:00,
2013-05-06 21:30:00,67.6,49.3,29.82,WSW,237,0.0,0.0,52,0.00,,,0.00,Wunderground v.1.15,2013-05-07 04:30:00,
2013-05-06 21:40:00,66.6,48.9,29.83,West,272,0.0,0.0,53,0.00,,,0.00,Wunderground v.1.15,2013-05-07 04:40:00,
2013-05-06 21:46:00,66.3,49.2,29.83,ESE,102,0.0,0.0,54,0.00,,,0.00,Wunderground v.1.15,2013-05-07 04:46:00,
2013-05-06 21:51:00,66.0,48.9,29.83,ESE,102,0.0,0.0,54,0.00,,,0.00,Wunderground v.1.15,2013-05-07 04:51:00,
2013-05-06 22:01:00,65.3,48.2,29.83,ESE,102,0.0,0.0,54,0.00,,,0.00,Wunderground v.1.15,2013-05-07 05:01:00,
2013-05-06 22:11:00,64.7,48.6,29.84,ESE,102,0.0,0.0,56,0.00,,,0.00,Wunderground v.1.15,2013-05-07 05:11:00,
2013-05-06 22:20:00,64.2,49.6,29.84,East,82,0.0,0.0,59,0.00,,,0.00,Wunderground v.1.15,2013-05-07 05:20:00,
2013-05-06 22:30:00,63.5,49.4,29.84,East,82,0.0,0.0,60,0.00,,,0.00,Wunderground v.1.15,2013-05-07 05:30:00,
2013-05-06 22:35:00,63.2,49.1,29.84,East,82,0.0,0.0,60,0.00,,,0.00,Wunderground v.1.15,2013-05-07 05:35:00,
2013-05-06 22:41:00,62.9,48.8,29.84,East,82,0.0,0.0,60,0.00,,,0.00,Wunderground v.1.15,2013-05-07 05:41:00,
2013-05-06 22:50:00,62.4,48.8,29.85,East,82,0.0,0.0,61,0.00,,,0.00,Wunderground v.1.15,2013-05-07 05:50:00,
2013-05-06 23:01:00,61.8,48.6,29.85,East,82,0.0,0.0,62,0.00,,,0.00,Wunderground v.1.15,2013-05-07 06:01:00,
2013-05-06 23:10:00,61.3,49.4,29.85,East,82,0.0,0.0,65,0.00,,,0.00,Wunderground v.1.15,2013-05-07 06:10:00,
2013-05-06 23:16:00,61.2,48.9,29.85,East,82,0.0,0.0,64,0.00,,,0.00,Wunderground v.1.15,2013-05-07 06:16:00,
2013-05-06 23:26:00,60.7,48.9,29.85,East,82,0.0,0.0,65,0.00,,,0.00,Wunderground v.1.15,2013-05-07 06:26:00,
2013-05-06 23:35:00,60.1,48.7,29.85,East,82,0.0,0.0,66,0.00,,,0.00,Wunderground v.1.15,2013-05-07 06:35:00,
2013-05-06 23:46:00,59.6,49.0,29.85,East,82,0.0,0.0,68,0.00,,,0.00,Wunderground v.1.15,2013-05-07 06:46:00,
2013-05-06 23:56:00,59.3,48.7,29.86,East,82,0.0,0.0,68,0.00,,,0.00,Wunderground v.1.15,2013-05-07 06:56:00,